FENGYUN 1C DEB, 31910

Orbit data source: Space-Track

FENGYUN 1C DEB, 31910 is space debris in SSO originally from a launch on Mon, 10 May 1999 UTC launched from the Taiyaun Space Center, China (TSC). Fengyun 1C debris stems from the Chinese weather satellite Fengyun-1C, which was intentionally destroyed by a Chinese anti-satellite missile in 2007. This event dramatically increased the amount of space debris, with thousands of trackable fragments posing hazards to satellites and human spaceflight. The Fengyun 1C debris cloud has become a focal point in discussions about space sustainability and the need for international regulations to prevent the creation of new debris.

Loading next visibility...
Identifier
31910, 1999-025CLM
Orbit
SSO
Country
Flag of CNCN / PRC
Related business
Manufacturer
Unknown
Mission
Spacecraft
Bus & Motor
Unknown
Mass
Unknown
Launch date (UTC)
1999-05-10 (27 years ago)
Launch vehicle
Unknown
Launch site
Taiyaun Space Center, China (TSC)
Object type
Payload
Rocket body
Debris
Shape & HBR
Unknown shape, 0.1 m
Radar Cross Section
Small (<0.1 m²)

Expand to show TLE details & history
Last TLE update: 2 days ago

TLE from 2 days ago
0 FENGYUN 1C DEB
1 31910U 99025CLM 26144.29395686  .00004275  00000-0  82684-3 0  9993
2 31910  97.6556 155.6162 0223014  11.1837 349.4199 14.49141905667223
Epoch: 2026-05-24T07:03Z
TLE epoch observation values (Epoch: 2026-05-24T07:03:17.872Z)
Latitude
-0.00001°
Longitude
167.89356°
Altitude
575.739 km
Speed
7.655 km/s
True Right ascension
10h 22m 27s
True Declination
0° 00' 00"
Sunlit
Object was in daylight at epoch
Visualization orbit readout
Latitude
Unknown
Longitude
Unknown
Altitude
Unknown
Speed
Unknown
Apparent Right ascension
Unknown
Apparent Declination
Unknown
Sunlit
N/A
Visualization observer readout
Local Sidereal Time
17:32:00
Azimuth
Unknown
Elevation
Unknown
Doppler factor
Unknown
Orbital elements
Apogee altitude
883.943 km
Perigee altitude
567.1 km
Semi-major axis
7,103.659 km
Eccentricity
0.0223
Inclination
97.6556°
RAAN
155.6162°
Arg. of periapsis
11.1837°
True anomaly
348.93748°
Mean anomaly
349.4199°
Eccentric anomaly
349.18003°
Mean motion
3.6251 °/min
Orbital period
99.31 mins
BSTAR
0.00082684
Loading maneuver chart data...
Computing Atmospheric mass density...

Documentation

Showing up to 5 results
|